Starlink 35810

operational
NORAD ID: 66575 Int'l Des: 2025-268 Owner: SPXS Country: US Constellation: starlink
LEOCIRCULAR

About Starlink 35810

Description loading...

Live Position

Loading 3D Globe...

Upcoming Passes

Altitude History

Altitude vs Time

uPlot chart will show altitude changes over time

Two-Line Element Set

1 66575U 25268U 26061.27255786 .00032150 00000-0 11730-2 0 9994
2 66575 43.0034 29.0999 0001725 279.6740 80.3917 15.27573578 16828
Epoch: Mar 2, 2026 • Age: 26 hours

Current Status

Altitude 486.6 km
Velocity 7.63 km/s
Sub-Earth Point 40.41°N, 49.19°W
Launch Date Nov 21, 2025
Age 0.2 years
Type internet

Technical Details

Classification Payload
Mass 575.00 kg
Dry Mass 530.00 kg
Total Mass 575.00 kg
Length 0.30 m
Diameter 4.10 m
Span 29.00 m
Shape Box + pan
Manufacturer SPXS
Bus Type Starlink V2MO
Phase Status In Orbit
Owner/State SPXS/US

Large Constellations

Loading constellations...